Time,TemperatureF,DewpointF,PressureIn,WindDirection,WindDirectionDegrees,WindSpeedMPH,WindSpeedGustMPH,Humidity,HourlyPrecipIn,Conditions,Clouds,dailyrainin,SolarRadiationWatts/m^2,SoftwareType,DateUTC
2013-05-22 00:01:00,40.0,24.0,-100.00,East,101,0.0,0.0,53,0.00,,,0.00,0.000000,,2013-05-22 07:01:00,
2013-05-22 00:21:00,38.0,25.0,-100.00,East,81,0.0,3.0,58,0.00,,,0.00,0.000000,,2013-05-22 07:21:00,
2013-05-22 00:32:00,38.0,25.0,-100.00,East,81,0.0,3.0,58,0.00,,,0.00,0.000000,,2013-05-22 07:32:00,
2013-05-22 01:22:00,36.0,23.0,-100.00,South,179,0.0,3.0,58,-99.99,,,-99.99,0.000000,,2013-05-22 08:22:00,
2013-05-22 02:22:00,35.0,22.0,-100.00,ENE,73,0.0,3.0,58,-99.99,,,0.00,0.000000,,2013-05-22 09:22:00,
2013-05-22 02:33:00,35.0,22.0,-100.00,ENE,73,0.0,3.0,58,-99.99,,,0.00,0.000000,,2013-05-22 09:33:00,
2013-05-22 03:23:00,34.0,21.0,-100.00,East,101,0.0,0.0,58,-99.99,,,0.00,0.000000,,2013-05-22 10:23:00,
2013-05-22 03:33:00,34.0,21.0,-100.00,East,101,0.0,0.0,58,-99.99,,,0.00,0.000000,,2013-05-22 10:33:00,
2013-05-22 04:22:00,33.0,23.0,-100.00,East,85,0.0,0.0,65,-99.99,,,0.00,0.000000,,2013-05-22 11:22:00,
2013-05-22 05:22:00,32.0,22.0,-100.00,ESE,107,0.0,4.0,66,-99.99,,,0.00,0.000000,,2013-05-22 12:22:00,
2013-05-22 05:32:00,32.0,22.0,-100.00,ESE,107,0.0,4.0,66,-99.99,,,0.00,0.000000,,2013-05-22 12:32:00,
2013-05-22 06:02:00,33.0,23.0,-100.00,North,350,0.0,5.0,67,-99.99,,,0.00,2.000000,,2013-05-22 13:02:00,
2013-05-22 06:22:00,33.0,23.0,-100.00,North,350,0.0,5.0,67,-99.99,,,0.00,2.000000,,2013-05-22 13:22:00,
2013-05-22 06:32:00,33.0,23.0,-100.00,North,350,0.0,5.0,67,-99.99,,,0.00,2.000000,,2013-05-22 13:32:00,
2013-05-22 06:52:00,33.0,23.0,-100.00,North,350,0.0,5.0,67,-99.99,,,0.00,2.000000,,2013-05-22 13:52:00,
2013-05-22 07:22:00,33.0,24.0,-100.00,ESE,102,0.0,0.0,69,-99.99,,,0.00,24.000000,,2013-05-22 14:22:00,
2013-05-22 07:32:00,33.0,24.0,-100.00,ESE,102,0.0,0.0,69,-99.99,,,0.00,24.000000,,2013-05-22 14:32:00,
2013-05-22 08:02:00,43.0,28.0,-100.00,WNW,292,0.0,4.0,54,-99.99,,,-99.99,133.000000,,2013-05-22 15:02:00,
2013-05-22 08:22:00,43.0,28.0,-100.00,WNW,292,0.0,4.0,54,-99.99,,,-99.99,133.000000,,2013-05-22 15:22:00,
2013-05-22 08:33:00,43.0,28.0,-100.00,WNW,292,0.0,4.0,54,-99.99,,,-99.99,133.000000,,2013-05-22 15:33:00,
2013-05-22 08:43:00,43.0,28.0,-100.00,WNW,292,0.0,4.0,54,-99.99,,,-99.99,133.000000,,2013-05-22 15:43:00,
2013-05-22 08:53:00,43.0,28.0,-100.00,WNW,292,0.0,4.0,54,-99.99,,,-99.99,133.000000,,2013-05-22 15:53:00,
2013-05-22 09:02:00,51.0,23.0,-100.00,NNW,330,1.0,6.0,33,0.00,,,0.00,584.000000,,2013-05-22 16:02:00,
2013-05-22 09:23:00,51.0,23.0,-100.00,NNW,330,1.0,6.0,33,0.00,,,0.00,584.000000,,2013-05-22 16:23:00,
2013-05-22 09:33:00,51.0,23.0,-100.00,NNW,330,1.0,6.0,33,0.00,,,0.00,584.000000,,2013-05-22 16:33:00,
2013-05-22 09:42:00,51.0,23.0,-100.00,NNW,330,1.0,6.0,33,0.00,,,0.00,584.000000,,2013-05-22 16:42:00,
2013-05-22 09:52:00,51.0,23.0,-100.00,NNW,330,1.0,6.0,33,0.00,,,0.00,584.000000,,2013-05-22 16:52:00,
2013-05-22 10:02:00,57.0,13.0,-100.00,WNW,289,3.0,12.0,17,0.00,,,0.00,800.000000,,2013-05-22 17:02:00,
2013-05-22 10:23:00,57.0,13.0,-100.00,WNW,289,3.0,12.0,17,0.00,,,0.00,800.000000,,2013-05-22 17:23:00,
2013-05-22 10:33:00,57.0,13.0,-100.00,WNW,289,3.0,12.0,17,0.00,,,0.00,800.000000,,2013-05-22 17:33:00,
2013-05-22 11:02:00,56.0,25.0,-100.00,NW,311,4.0,11.0,30,0.00,,,0.00,970.000000,,2013-05-22 18:02:00,
2013-05-22 11:22:00,56.0,25.0,-100.00,NW,311,4.0,11.0,30,0.00,,,0.00,970.000000,,2013-05-22 18:22:00,
2013-05-22 11:34:00,56.0,25.0,-100.00,NW,311,4.0,11.0,30,0.00,,,0.00,970.000000,,2013-05-22 18:34:00,
2013-05-22 11:42:00,56.0,25.0,-100.00,NW,311,4.0,11.0,30,0.00,,,0.00,970.000000,,2013-05-22 18:42:00,
2013-05-22 11:52:00,56.0,25.0,-100.00,NW,311,4.0,11.0,30,0.00,,,0.00,970.000000,,2013-05-22 18:52:00,
2013-05-22 12:22:00,56.0,23.0,-100.00,NW,319,4.0,14.0,28,0.00,,,0.00,1004.000000,,2013-05-22 19:22:00,
2013-05-22 12:32:00,56.0,23.0,-100.00,NW,319,4.0,14.0,28,0.00,,,0.00,1004.000000,,2013-05-22 19:32:00,
2013-05-22 12:42:00,56.0,23.0,-100.00,NW,319,4.0,14.0,28,0.00,,,0.00,1004.000000,,2013-05-22 19:42:00,
2013-05-22 12:52:00,56.0,23.0,-100.00,NW,319,4.0,14.0,28,0.00,,,0.00,1004.000000,,2013-05-22 19:52:00,
2013-05-22 13:01:00,56.0,23.0,-100.00,NW,319,4.0,14.0,28,0.00,,,0.00,1004.000000,,2013-05-22 20:01:00,
2013-05-22 13:22:00,55.0,18.0,-100.00,NW,324,6.0,15.0,23,0.00,,,0.00,1140.000000,,2013-05-22 20:22:00,
2013-05-22 13:32:00,55.0,18.0,-100.00,NW,324,6.0,15.0,23,0.00,,,0.00,1140.000000,,2013-05-22 20:32:00,
2013-05-22 13:42:00,55.0,18.0,-100.00,NW,324,6.0,15.0,23,0.00,,,0.00,1140.000000,,2013-05-22 20:42:00,
2013-05-22 13:52:00,55.0,18.0,-100.00,NW,324,6.0,15.0,23,0.00,,,0.00,1140.000000,,2013-05-22 20:52:00,
2013-05-22 14:01:00,55.0,18.0,-100.00,NW,324,6.0,15.0,23,0.00,,,0.00,1140.000000,,2013-05-22 21:01:00,
2013-05-22 14:02:00,56.0,17.0,-100.00,North,353,5.0,15.0,21,0.00,,,0.00,1147.000000,,2013-05-22 21:02:00,
2013-05-22 14:22:00,56.0,17.0,-100.00,North,353,5.0,15.0,21,0.00,,,0.00,1147.000000,,2013-05-22 21:22:00,
2013-05-22 14:33:00,56.0,17.0,-100.00,North,353,5.0,15.0,21,0.00,,,0.00,1147.000000,,2013-05-22 21:33:00,
2013-05-22 14:42:00,56.0,17.0,-100.00,North,353,5.0,15.0,21,0.00,,,0.00,1147.000000,,2013-05-22 21:42:00,
2013-05-22 14:53:00,56.0,17.0,-100.00,North,353,5.0,15.0,21,0.00,,,0.00,1147.000000,,2013-05-22 21:53:00,
2013-05-22 16:22:00,57.0,16.0,-100.00,NW,308,5.0,17.0,20,-99.99,,,0.00,956.000000,,2013-05-22 23:22:00,
2013-05-22 16:32:00,57.0,16.0,-100.00,NW,308,5.0,17.0,20,-99.99,,,0.00,956.000000,,2013-05-22 23:32:00,
2013-05-22 16:42:00,57.0,16.0,-100.00,NW,308,5.0,17.0,20,-99.99,,,0.00,956.000000,,2013-05-22 23:42:00,
2013-05-22 16:52:00,57.0,16.0,-100.00,NW,308,5.0,17.0,20,-99.99,,,0.00,956.000000,,2013-05-22 23:52:00,
2013-05-22 17:01:00,57.0,16.0,-100.00,NW,308,5.0,17.0,20,-99.99,,,0.00,956.000000,,2013-05-23 00:01:00,
2013-05-22 17:22:00,57.0,17.0,-100.00,NW,322,3.0,15.0,21,0.00,,,0.00,776.000000,,2013-05-23 00:22:00,
2013-05-22 17:32:00,57.0,17.0,-100.00,NW,322,3.0,15.0,21,0.00,,,0.00,776.000000,,2013-05-23 00:32:00,
2013-05-22 17:42:00,57.0,17.0,-100.00,NW,322,3.0,15.0,21,0.00,,,0.00,776.000000,,2013-05-23 00:42:00,
2013-05-22 17:52:00,57.0,17.0,-100.00,NW,322,3.0,15.0,21,0.00,,,0.00,776.000000,,2013-05-23 00:52:00,
2013-05-22 18:01:00,57.0,17.0,-100.00,NW,322,3.0,15.0,21,0.00,,,0.00,776.000000,,2013-05-23 01:01:00,
2013-05-22 18:22:00,53.0,16.0,-100.00,NW,322,4.0,13.0,23,0.00,,,0.00,524.000000,,2013-05-23 01:22:00,
2013-05-22 18:32:00,53.0,16.0,-100.00,NW,322,4.0,13.0,23,0.00,,,0.00,524.000000,,2013-05-23 01:32:00,
2013-05-22 18:42:00,53.0,16.0,-100.00,NW,322,4.0,13.0,23,0.00,,,0.00,524.000000,,2013-05-23 01:42:00,
2013-05-22 18:52:00,53.0,16.0,-100.00,NW,322,4.0,13.0,23,0.00,,,0.00,524.000000,,2013-05-23 01:52:00,
2013-05-22 19:01:00,53.0,16.0,-100.00,NW,322,4.0,13.0,23,0.00,,,0.00,524.000000,,2013-05-23 02:01:00,
2013-05-22 19:22:00,49.0,14.0,-100.00,NW,313,2.0,11.0,24,0.00,,,0.00,49.000000,,2013-05-23 02:22:00,
2013-05-22 19:32:00,49.0,14.0,-100.00,NW,313,2.0,11.0,24,0.00,,,0.00,49.000000,,2013-05-23 02:32:00,
2013-05-22 19:42:00,49.0,14.0,-100.00,NW,313,2.0,11.0,24,0.00,,,0.00,49.000000,,2013-05-23 02:42:00,
2013-05-22 19:51:00,49.0,14.0,-100.00,NW,313,2.0,11.0,24,0.00,,,0.00,49.000000,,2013-05-23 02:51:00,
2013-05-22 20:01:00,49.0,14.0,-100.00,NW,313,2.0,11.0,24,0.00,,,0.00,49.000000,,2013-05-23 03:01:00,
2013-05-22 20:02:00,45.0,16.0,-100.00,NNE,27,0.0,8.0,31,0.00,,,0.00,64.000000,,2013-05-23 03:02:00,
2013-05-22 20:22:00,45.0,16.0,-100.00,NNE,27,0.0,8.0,31,0.00,,,0.00,64.000000,,2013-05-23 03:22:00,
2013-05-22 20:33:00,45.0,16.0,-100.00,NNE,27,0.0,8.0,31,0.00,,,0.00,64.000000,,2013-05-23 03:33:00,
2013-05-22 20:43:00,45.0,16.0,-100.00,NNE,27,0.0,8.0,31,0.00,,,0.00,64.000000,,2013-05-23 03:43:00,
2013-05-22 20:53:00,45.0,16.0,-100.00,NNE,27,0.0,8.0,31,0.00,,,0.00,64.000000,,2013-05-23 03:53:00,
2013-05-22 21:02:00,39.0,17.0,-100.00,East,79,0.0,4.0,41,0.00,,,0.00,1.000000,,2013-05-23 04:02:00,
2013-05-22 21:23:00,39.0,17.0,-100.00,East,79,0.0,4.0,41,0.00,,,0.00,1.000000,,2013-05-23 04:23:00,
2013-05-22 21:33:00,39.0,17.0,-100.00,East,79,0.0,4.0,41,0.00,,,0.00,1.000000,,2013-05-23 04:33:00,
2013-05-22 21:43:00,39.0,17.0,-100.00,East,79,0.0,4.0,41,0.00,,,0.00,1.000000,,2013-05-23 04:43:00,
2013-05-22 21:52:00,39.0,17.0,-100.00,East,79,0.0,4.0,41,0.00,,,0.00,1.000000,,2013-05-23 04:52:00,
2013-05-22 22:02:00,34.0,16.0,-100.00,ENE,75,0.0,0.0,48,0.00,,,0.00,0.000000,,2013-05-23 05:02:00,
2013-05-22 22:22:00,34.0,16.0,-100.00,ENE,75,0.0,0.0,48,0.00,,,0.00,0.000000,,2013-05-23 05:22:00,
2013-05-22 22:32:00,34.0,16.0,-100.00,ENE,75,0.0,0.0,48,0.00,,,0.00,0.000000,,2013-05-23 05:32:00,
2013-05-22 22:43:00,34.0,16.0,-100.00,ENE,75,0.0,0.0,48,0.00,,,0.00,0.000000,,2013-05-23 05:43:00,
2013-05-22 22:52:00,34.0,16.0,-100.00,ENE,75,0.0,0.0,48,0.00,,,0.00,0.000000,,2013-05-23 05:52:00,
2013-05-22 23:22:00,33.0,17.0,-100.00,East,96,0.0,3.0,51,0.00,,,0.00,0.000000,,2013-05-23 06:22:00,
2013-05-22 23:32:00,33.0,17.0,-100.00,East,96,0.0,3.0,51,0.00,,,0.00,0.000000,,2013-05-23 06:32:00,
2013-05-22 23:42:00,33.0,17.0,-100.00,East,96,0.0,3.0,51,0.00,,,0.00,0.000000,,2013-05-23 06:42:00,
2013-05-22 23:52:00,33.0,17.0,-100.00,East,96,0.0,3.0,51,0.00,,,0.00,0.000000,,2013-05-23 06:52:00,